652,595개(3416/32630페이지)
LECTURE
번호 제목 글쓴이 조회 날짜
584295 가입쿠폰3만 우리계열카지노사이트 추천은 온라인카지노NO.1 ZhuRooney1683 8 2022.01.17 14:29
584294 How old do you have to be to get car ins ClementsThornton4139 6 2022.01.17 14:28
584293 Residential Portray Companies JoynerCalhoun9370 5 2022.01.17 14:28
584292 Trực Tiếp Bóng Đá Euro 2020 Hôm Nay 20 BroussardMccarthy3361 7 2022.01.17 14:28
584291 Bonus Menarik Dari Agen Judi Poker Onlin 사진 PennVinding9264 11 2022.01.17 14:28
584290 <h1>Only Alibaba? 6 Websites Like FriisBird4559 6 2022.01.17 14:28
584289 Lịch Thi Đấu Bóng Đá Hôm Nay CatesBrandstrup6448 6 2022.01.17 14:28
584288 Advice To Help You Slim Down Smartly DuganNedergaard1847 7 2022.01.17 14:28
584287 Metode Simpel MENGALAHKAN Saingan DALAM 사진 BirkSalinas7386 6 2022.01.17 14:27
584286 TEKNIK Gampang Menundukkan LAWAN DALAM B 사진 BlakeGundersen3580 4 2022.01.17 14:27
584285 Remédio Destinado A Emagrecer Acelerado 사진 LyhneBering0600 3 2022.01.17 14:27
584284 <h1>China Acrylic Boxes Wholesale, PittmanJonasson3731 5 2022.01.17 14:27
584283 Menentukan MEDIA UNTUK BERMAIN POKER ONL 사진 PaulsenLindholm2195 6 2022.01.17 14:27
584282 Quick comparison of two well-known Youtu 사진 JustesenLehmann3500 10 2022.01.17 14:27
584281 Joker123 Autobet Net Review WillumsenPerkins3703 3 2022.01.17 14:27
584280 Aktualności - UODO McMahonChang0068 6 2022.01.17 14:27
584279 Bermain Gambling Di Tempat Poker Uang As 사진 EmersonHammond5101 6 2022.01.17 14:26
584278 Metode MUDAH Melibas LAWAN DALAM BERMAIN 사진 StuartSawyer0054 7 2022.01.17 14:26
584277 The Differences Between Virtual Football HinrichsenAagesen6028 10 2022.01.17 14:26
584276 Tourist Visa KlitgaardFitzsimmons4377 5 2022.01.17 14:25